Track COSMOS 2488 now! 10-day predictions COSMOS 2488 is classified as:
1 39483U 13076A 21058.39819418 .00000009 00000-0 -90160-5 0 9994 2 39483 82.4848 295.0671 0020089 356.5023 3.5916 12.42875830325617